Location: Auckland
(36.8500°S, 174.7800°E)
Time: 06:30:55
(UTC+13:00)

ISS - Visible Passes

Search period start: 07 December 2025 00:00
Search period end: 17 December 2025 00:00
Orbit: 416 x 421 km, 51.6° (Epoch: 06 December)

Date Brightness Start Highest point End Pass type
(mag) Time Alt. Az. Time Alt. Az. Time Alt. Az.
07 Dec -0.1 03:15:07 10° S 03:16:01 11° SSE 03:16:56 10° SSE visible
07 Dec -2.4 04:50:13 10° SW 04:53:31 44° SE 04:56:49 10° ENE visible
07 Dec -3.6 21:31:28 10° NNW 21:34:44 51° NE 21:38:04 10° ESE visible
07 Dec -0.9 23:09:09 10° WSW 23:11:44 20° SSW 23:14:21 10° SSE visible
08 Dec -1.4 04:02:37 10° SSW 04:05:38 28° SSE 04:08:37 10° E visible
08 Dec -1.6 22:20:45 10° W 22:23:46 29° SSW 22:26:49 10° SSE visible
09 Dec -0.8 03:15:07 10° SSW 03:17:39 19° SSE 03:20:11 10° ESE visible
09 Dec -3.7 04:51:18 10° WSW 04:54:40 56° NW 04:58:00 10° NE visible
09 Dec -2.6 21:32:33 10° WNW 21:35:50 47° SW 21:39:09 10° SE visible
09 Dec -0.1 23:12:14 10° SW 23:13:18 11° SSW 23:14:23 10° S visible
10 Dec -0.4 02:27:41 10° S 02:29:34 14° SSE 02:31:27 10° SE visible
10 Dec -3.6 04:03:25 10° SW 04:06:51 77° SE 04:10:15 10° NE visible
10 Dec -0.4 22:23:10 10° WSW 22:25:10 15° SSW 22:27:10 10° SSE visible
11 Dec -0.2 01:40:36 10° S 01:41:25 11° SSE 01:42:15 10° SSE visible
11 Dec -2.5 03:15:38 10° SW 03:18:56 43° SE 03:22:12 10° ENE visible
11 Dec -2.2 04:53:09 10° W 04:55:28 17° NW 04:57:46 10° N visible
11 Dec -0.8 21:34:26 10° WSW 21:37:03 20° SSW 21:39:41 10° SSE visible
12 Dec -1.2 02:27:56 10° SSW 02:29:34 21° S 02:29:34 21° S visible
13 Dec -0.7 01:40:20 10° SSW 01:41:49 17° S 01:41:49 17° S visible
13 Dec -0.3 21:37:16 10° SW 21:38:24 11° SSW 21:39:32 10° S visible
14 Dec -0.6 00:52:49 10° S 00:54:39 14° SSE 00:54:41 14° SSE visible
15 Dec -0.4 00:05:41 10° S 00:06:23 10° SSE 00:07:05 10° SSE visible
15 Dec -0.4 01:40:37 10° SW 01:40:39 10° SW 01:40:39 10° SW visible
16 Dec -0.7 00:52:50 10° SSW 00:53:53 16° SSW 00:53:53 16° SSW visible
